| time (UTC) | temp C | wind direction | speed KPH | gust KPH | rain 1hr cm | rain 24hr cm | rain mn cm | humidity % | barometer mb |
| 20260904083005 | 17 | 274 | 4.8 | 12.9 | 0.00 | 1.02 | 0.05 | 82 | 1000.6 |
| 20260904081504 | 16 | 251 | 4.8 | 19.3 | 0.00 | 1.02 | 0.05 | 83 | 1000.7 |
| 20260904080004 | 16 | 243 | 3.2 | 12.9 | 0.00 | 1.02 | 0.05 | 83 | 1001.1 |
| 20260904073005 | 16 | 271 | 9.7 | 24.1 | 0.00 | 1.02 | 0.05 | 84 | 1001.1 |
| 20260904064504 | 15 | 248 | 8.0 | 14.5 | 0.00 | 1.02 | 0.05 | 87 | 1001.1 |
| 20260904061504 | 15 | 245 | 4.8 | 20.9 | 0.00 | 1.02 | 0.05 | 88 | 1001.1 |
| 20260904060004 | 15 | 334 | 3.2 | 19.3 | 0.00 | 1.02 | 0.05 | 89 | 1001.1 |
| 20260904041505 | 15 | 233 | 8.0 | 16.1 | 0.00 | 1.02 | 0.05 | 90 | 1001.1 |
| 20260904040005 | 15 | 225 | 4.8 | 19.3 | 0.00 | 1.02 | 0.05 | 90 | 1001.0 |
| 20260904034505 | 15 | 221 | 4.8 | 16.1 | 0.00 | 1.02 | 0.05 | 91 | 1001.1 |
| 20260904030004 | 16 | 248 | 4.8 | 12.9 | 0.00 | 1.02 | 0.05 | 91 | 1001.1 |
| 20260904023005 | 16 | 269 | 4.8 | 16.1 | 0.03 | 1.02 | 0.05 | 92 | 1001.4 |
| 20260904021504 | 16 | 268 | 6.4 | 14.5 | 0.03 | 1.02 | 0.05 | 92 | 1001.4 |
| 20260904020005 | 16 | 249 | 4.8 | 14.5 | 0.03 | 1.02 | 0.05 | 93 | 1001.0 |
| 20260904010004 | 16 | 279 | 4.8 | 12.9 | 0.05 | 0.99 | 0.05 | 93 | 1001.0 |
| 20260904001504 | 17 | 277 | 4.8 | 12.9 | 0.00 | 0.97 | 0.00 | 94 | 1000.9 |
| 20260903234503 | 17 | 235 | 4.8 | 14.5 | 0.00 | 0.97 | 0.00 | 94 | 1000.9 |
| 20260903233003 | 17 | 202 | 3.2 | 12.9 | 0.00 | 0.97 | 0.00 | 94 | 1001.0 |
| 20260903231503 | 17 | 242 | 4.8 | 9.7 | 0.00 | 0.97 | 0.00 | 94 | 1001.0 |
| 20260903230004 | 17 | 223 | 3.2 | 9.7 | 0.00 | 0.97 | 0.00 | 94 | 1001.1 |
| 20260903224505 | 17 | 225 | 4.8 | 12.9 | 0.00 | 0.97 | 0.00 | 94 | 1001.0 |
| 20260903221504 | 17 | 194 | 8.0 | 19.3 | 0.03 | 0.97 | 0.00 | 94 | 1001.1 |
| 20260903203005 | 16 | 190 | 6.4 | 11.3 | 0.03 | 0.71 | 0.71 | 95 | 1002.0 |
| 20260903194504 | 16 | 192 | 1.6 | 8.0 | 0.03 | 0.71 | 0.71 | 94 | 1002.7 |
| 20260903191504 | 16 | 198 | 4.8 | 9.7 | 0.51 | 0.71 | 0.71 | 94 | 1003.0 |
| 20260903190005 | 16 | 193 | 3.2 | 11.3 | 0.64 | 0.71 | 0.71 | 94 | 1003.2 |
| 20260903183004 | 16 | 183 | 6.4 | 12.9 | 0.61 | 0.64 | 0.64 | 94 | 1003.6 |
| 20260903180004 | 16 | 188 | 3.2 | 11.3 | 0.03 | 0.05 | 0.05 | 93 | 1004.0 |
| 20260903173005 | 16 | 176 | 3.2 | 16.1 | 0.00 | 0.05 | 0.05 | 93 | 1004.5 |
| 20260903171504 | 16 | 179 | 4.8 | 12.9 | 0.03 | 0.05 | 0.05 | 93 | 1004.5 |
| 20260903164504 | 16 | 189 | 4.8 | 12.9 | 0.03 | 0.05 | 0.05 | 92 | 1004.7 |
| 20260903163005 | 16 | 181 | 4.8 | 12.9 | 0.03 | 0.05 | 0.05 | 91 | 1005.9 |
| 20260903161504 | 16 | 184 | 4.8 | 16.1 | 0.00 | 0.03 | 0.03 | 91 | 1005.9 |
| 20260903153005 | 16 | 198 | 3.2 | 16.1 | 0.00 | 0.03 | 0.03 | 91 | 1005.9 |
| 20260903151505 | 16 | 190 | 4.8 | 16.1 | 0.00 | 0.03 | 0.03 | 91 | 1006.7 |
| 20260903150004 | 16 | 184 | 6.4 | 22.5 | 0.00 | 0.03 | 0.03 | 90 | 1006.7 |
| 20260903140004 | 17 | 191 | 8.0 | 19.3 | 0.03 | 0.03 | 0.03 | 89 | 1007.4 |
| 20260903134505 | 17 | 190 | 6.4 | 19.3 | 0.03 | 0.03 | 0.03 | 89 | 1007.4 |
| 20260903133004 | 17 | 204 | 9.7 | 27.4 | 0.03 | 0.03 | 0.03 | 90 | 1007.4 |
| 20260903123005 | 18 | 194 | 6.4 | 14.5 | 0.00 | 0.00 | 0.00 | 80 | 1008.0 |
| 20260903121504 | 18 | 195 | 4.8 | 16.1 | 0.00 | 0.00 | 0.00 | 81 | 1008.0 |
| 20260903114505 | 18 | 192 | 3.2 | 14.5 | 0.00 | 0.00 | 0.00 | 80 | 1008.2 |
| 20260903113005 | 18 | 210 | 6.4 | 14.5 | 0.00 | 0.00 | 0.00 | 78 | 1008.8 |
| 20260903110005 | 18 | 221 | 1.6 | 11.3 | 0.00 | 0.00 | 0.00 | 78 | 1008.8 |
| 20260903101504 | 18 | 238 | 3.2 | 12.9 | 0.00 | 0.00 | 0.00 | 79 | 1009.5 |
| 20260903100004 | 18 | 207 | 3.2 | 12.9 | 0.00 | 0.00 | 0.00 | 78 | 1009.5 |
| 20260903084504 | 16 | 216 | 4.8 | 14.5 | 0.00 | 0.00 | 0.00 | 82 | 1010.1 |